Tracking 32418 objects as of 9-Dec-2025
HD Live streaming from Space Station
objects crossing your sky now

OBJECT XJ

Track OBJECT XJ now!
10-day predictions


NORAD ID: 65730
Int'l Code: 1998-067XJ
Perigee: 209.4 km
Apogee: 222.7 km
Inclination: 51.6 °
Period: 88.7 minutes
Semi major axis: 6587 km
RCS: Unknown
Launch date: November 20, 1998
Source: Japan (JPN)
Launch site: TYURATAM MISSILE AND SPACE COMPLEX (TTMTR)
Your satellite tracking list
Your tracking list is empty




NASA's NSSDC Master Catalog

Two Line Element Set (TLE):
1 65730U 98067XJ  25336.82362581  .06330363  11931-4  22859-2 0  9996
2 65730  51.6061 180.4655 0010115 256.3912 103.5981 16.23931094 11688
Source of the keplerian elements: AFSPC